Location: Taylor Dark Sky Site
(39.1017°N, 87.9564°W)
Time: 07:50:57
(UTC-05:00)

Amateur Radio Satellites - All Passes

Search period start: 03 September 2015 07:20
Search period end: 04 September 2015 07:20
Location: Taylor Dark Sky Site, 39.1017°N, 87.9564°W

Satellite Date Start Highest point End Downlink Frequencies (MHz)
Time Altitude Azimuth
CUBESAT XI-V 03 Sep 07:24:14 07:27:14 16° 269° (W) 07:30:03 437.345
BRITE-PL 03 Sep 07:31:26 07:35:56 25° 92° (E) 07:40:37 437.365/2234.400
Cosmos 2491 03 Sep 07:39:22 07:45:23 22° 82° (E) 07:51:47 435.465 / 435.565
CUTE-I 03 Sep 07:43:42 07:48:56 57° 287° (WNW) 07:54:08 437.470
GOMX 1 03 Sep 07:47:29 07:51:26 21° 90° (E) 07:55:34 467.674
DOVE 4 03 Sep 07:49:56 07:51:45 12° 86° (E) 07:53:55 437.250
ISS 03 Sep 07:53:12 07:56:24 60° 139° (SE) 07:59:37 145.825
PHONESAT 2.4 03 Sep 07:55:45 07:59:10 72° 6° (N) 08:02:34 2401.200-2431.200
VERMONT LUNAR 03 Sep 08:00:34 08:02:51 20° 209° (SSW) 08:05:06 437.305
STRAND 1 03 Sep 08:16:22 08:20:16 21° 267° (W) 08:24:01 437.568
PRISM 03 Sep 08:17:29 08:20:38 20° 266° (W) 08:23:39 437.425
HO-68 03 Sep 08:20:08 08:25:30 23° 92° (E) 08:31:06 435.675
Cubesat XI-IV 03 Sep 08:40:47 08:44:26 18° 296° (WNW) 08:47:53 437.490
YUBILEINY 03 Sep 08:46:11 08:55:01 75° 266° (W) 09:03:45 435.215
AIST 1 03 Sep 08:47:42 08:51:28 29° 284° (WNW) 08:55:12
SO-50 03 Sep 08:58:17 09:02:50 36° 50° (NE) 09:07:18 436.795
Cosmos 2504 03 Sep 09:06:01 09:11:57 21° 64° (ENE) 09:17:58 435.465 / 435.565
CUTE 1.7 + AOD 2 03 Sep 09:06:47 09:10:49 44° 98° (E) 09:14:51 437.475
BRITE-PL 03 Sep 09:09:17 09:14:35 44° 288° (WNW) 09:19:56 437.365/2234.400
CANX-2 03 Sep 09:21:06 09:25:20 76° 101° (ESE) 09:29:32 2200.000
CUBEBUG 2 03 Sep 09:23:58 09:27:11 19° 91° (E) 09:30:27 437.445
GOMX 1 03 Sep 09:24:32 09:29:51 51° 287° (WNW) 09:35:06 467.674
DOVE 4 03 Sep 09:24:51 09:30:12 79° 284° (WNW) 09:35:25 437.250
UWE-3 03 Sep 09:25:46 09:28:12 15° 89° (E) 09:30:48 435.000/436.395/437.385
ISS 03 Sep 09:30:33 09:33:03 20° 336° (NNW) 09:35:33 145.825
Cosmos 2491 03 Sep 09:32:48 09:41:30 72° 280° (W) 09:50:12 435.465 / 435.565
PHONESAT 2.4 03 Sep 09:33:43 09:36:59 45° 203° (SSW) 09:40:14 2401.200-2431.200
SEEDS 03 Sep 09:37:40 09:41:52 83° 102° (ESE) 09:46:02 437.485
CUSAT 1 03 Sep 09:49:12 09:56:00 31° 69° (ENE) 10:03:10 437.405
CINEMA 3 03 Sep 09:50:39 09:55:40 85° 99° (E) 10:00:30 145.822/145.860
UNISAT 6 03 Sep 09:53:00 09:57:01 30° 70° (ENE) 10:01:07 437.425
COMPASS 1 03 Sep 09:55:00 09:59:10 80° 282° (WNW) 10:03:17 437.405
Oscar 11 03 Sep 09:58:20 10:02:21 38° 97° (E) 10:06:22 145.826/435.025
AUBIESAT-1 03 Sep 10:01:29 10:05:47 36° 67° (ENE) 10:10:02 437.475
AAUSAT CUBESAT 2 03 Sep 10:02:46 10:06:54 77° 283° (WNW) 10:11:00 437.432
PCSat 03 Sep 10:05:56 10:10:55 36° 53° (NE) 10:15:54 145.827
HO-68 03 Sep 10:06:41 10:13:48 63° 290° (WNW) 10:20:51 435.675
DELFI C3 03 Sep 10:07:37 10:11:06 29° 96° (E) 10:14:37 145.870
M-CUBED/EXP-1 PRIME 03 Sep 10:09:10 10:13:48 51° 69° (ENE) 10:18:23 437.505
TIGRISAT 03 Sep 10:19:47 10:24:19 54° 74° (ENE) 10:28:57 435.000
BUGSAT 1 03 Sep 10:27:02 10:28:44 13° 65° (ENE) 10:30:39 437.445
DUCHIFAT 1 03 Sep 10:30:00 10:33:18 23° 69° (ENE) 10:36:42 145.980
POLYITAN 1 03 Sep 10:30:28 10:33:55 25° 70° (ENE) 10:37:30 437.675
POPSAT HIP 1 03 Sep 10:31:56 10:35:23 25° 70° (ENE) 10:38:56 437.405
DANDE 03 Sep 10:36:33 10:44:03 47° 74° (ENE) 10:52:13 436.750
ANTELSAT 03 Sep 10:37:55 10:42:37 88° 77° (ENE) 10:47:22 437.575/2403.000
SO-50 03 Sep 10:39:04 10:43:15 28° 247° (WSW) 10:47:15 436.795
CUTE 1.7 + AOD 2 03 Sep 10:43:56 10:46:24 15° 293° (WNW) 10:48:42 437.475
YUBILEINY 03 Sep 10:46:52 10:50:30 13° 283° (WNW) 10:53:25 435.215
ZACube-1 03 Sep 10:47:21 10:51:51 90° 101° (E) 10:56:12 437.345
NANOSAT C BR1 03 Sep 10:47:54 10:51:47 37° 72° (ENE) 10:55:45 145.865
QB50P2 03 Sep 10:49:03 10:53:02 40° 72° (ENE) 10:57:04 145.880/145.840
FUNcube-1 03 Sep 10:51:26 10:55:56 84° 284° (WNW) 11:00:16 145.935
Cosmos 2504 03 Sep 10:56:50 11:05:17 77° 266° (W) 11:13:08 435.465 / 435.565
VELOX 1 03 Sep 10:57:03 10:59:22 14° 90° (E) 11:01:53 145.980
CUBEBUG 2 03 Sep 10:59:43 11:04:04 39° 288° (WNW) 11:08:15 437.445
UWE-3 03 Sep 11:00:41 11:05:06 48° 287° (WNW) 11:09:21 435.000/436.395/437.385
QB50P1 03 Sep 11:02:29 11:06:38 56° 74° (ENE) 11:10:51 145.935-145.965
DOVE 4 03 Sep 11:06:25 11:07:08 10° 299° (WNW) 11:07:30 437.250
HUMSAT D 03 Sep 11:09:15 11:13:26 59° 100° (E) 11:17:31 437.325/437.525
UNISAT 6 03 Sep 11:29:45 11:33:45 27° 266° (W) 11:37:42 437.425
CINEMA 3 03 Sep 11:30:36 11:32:09 11° 298° (WNW) 11:33:25 145.822/145.860
DX 1 03 Sep 11:30:55 11:35:14 54° 100° (E) 11:39:32 434.975-435.025
CUSAT 1 03 Sep 11:31:07 11:38:59 60° 266° (W) 11:46:55 437.405
Oscar 11 03 Sep 11:35:17 11:38:16 18° 292° (WNW) 11:41:07 145.826/435.025
Cosmos 2491 03 Sep 11:36:18 11:40:22 13° 303° (WNW) 11:43:47 435.465 / 435.565
AUBIESAT-1 03 Sep 11:36:40 11:40:31 24° 261° (W) 11:44:13 437.475
UKube-1 03 Sep 11:39:01 11:43:19 60° 101° (E) 11:47:36 .
DELFI C3 03 Sep 11:43:04 11:46:00 19° 291° (WNW) 11:48:48 145.870
M-CUBED/EXP-1 PRIME 03 Sep 11:45:35 11:48:49 17° 264° (W) 11:51:49 437.505
PCSat 03 Sep 11:49:31 11:54:15 31° 250° (WSW) 11:58:54 145.827
CUBEBUG 1 03 Sep 11:56:17 12:00:27 40° 98° (E) 12:04:38 437.445
HO-68 03 Sep 11:57:49 12:00:19 12° 307° (NW) 12:02:22 435.675
Oscar 19 03 Sep 11:58:16 11:59:38 11° 61° (ENE) 12:01:18 437.125/150
TIGRISAT 03 Sep 11:58:46 12:01:27 15° 270° (W) 12:03:56 435.000
BUGSAT 1 03 Sep 11:59:49 12:03:47 51° 260° (W) 12:07:49 437.445
50 SAT 03 Sep 12:00:42 12:04:34 81° 283° (WNW) 12:08:23 437.505
ESTCUBE 1 03 Sep 12:01:42 12:06:09 57° 100° (E) 12:10:35 437.505/2401.250
AISAT 03 Sep 12:04:24 12:08:55 85° 100° (E) 12:13:25 437.250
DUCHIFAT 1 03 Sep 12:05:17 12:08:58 28° 264° (W) 12:12:39 145.980
POLYITAN 1 03 Sep 12:06:07 12:09:45 26° 265° (W) 12:13:21 437.675
POPSAT HIP 1 03 Sep 12:07:34 12:11:11 26° 265° (W) 12:14:44 437.405
DANDE 03 Sep 12:19:49 12:27:08 40° 269° (W) 12:34:48 436.750
NANOSAT C BR1 03 Sep 12:24:53 12:27:47 17° 268° (W) 12:30:33 145.865
QB50P2 03 Sep 12:26:25 12:29:08 16° 269° (W) 12:31:42 145.880/145.840
VELOX 1 03 Sep 12:31:55 12:36:15 49° 287° (WNW) 12:40:33 145.980
TISAT 1 03 Sep 12:34:15 12:37:02 17° 92° (E) 12:39:57 437.305
QB50P1 03 Sep 12:41:24 12:42:55 11° 271° (W) 12:44:11 145.935-145.965
ISS 03 Sep 12:46:24 12:48:02 13° 16° (NNE) 12:49:43 145.825
HUMSAT D 03 Sep 12:47:05 12:48:41 12° 295° (WNW) 12:50:03 437.325/437.525
Cosmos 2504 03 Sep 12:52:37 12:56:08 13° 283° (WNW) 12:58:56 435.465 / 435.565
Gurwin Techsat 1B 03 Sep 13:00:56 13:03:36 15° 63° (ENE) 13:06:30 435.225
JAS-2 03 Sep 13:02:27 13:05:38 13° 56° (NE) 13:09:16 435.910
ITAMSAT 1 03 Sep 13:03:09 13:04:49 12° 61° (ENE) 13:06:46 435.822/435.867
DX 1 03 Sep 13:08:44 13:11:03 14° 295° (WNW) 13:13:11 434.975-435.025
SPROUT 03 Sep 13:16:21 13:20:43 83° 284° (WNW) 13:25:02 437.525
UKube-1 03 Sep 13:17:05 13:18:59 12° 295° (WNW) 13:20:41 .
CUSAT 1 03 Sep 13:18:50 13:20:23 10° 280° (W) 13:21:12 437.405
BEESAT 3 03 Sep 13:23:54 13:26:21 16° 111° (ESE) 13:28:57 437.485
Oscar 19 03 Sep 13:33:08 13:38:18 90° 171° (S) 13:43:33 437.125/150
CUBEBUG 1 03 Sep 13:33:27 13:36:32 18° 293° (WNW) 13:39:28 437.445
GONETS M04 03 Sep 13:33:41 13:42:18 55° 77° (ENE) 13:50:56
SWISSCUBE 03 Sep 13:34:02 13:36:32 15° 90° (E) 13:39:17 437.505
JUGNU 03 Sep 13:38:06 13:39:40 11° 180° (S) 13:41:14 437.505
BEESAT 2 03 Sep 13:40:03 13:42:48 18° 112° (ESE) 13:45:42 435.950
ESTCUBE 1 03 Sep 13:40:14 13:42:35 14° 295° (WNW) 13:44:44 437.505/2401.250
TISAT 1 03 Sep 14:09:00 14:12:58 37° 288° (WNW) 14:16:53 437.305
ITUPSAT 1 03 Sep 14:12:40 14:16:58 33° 97° (E) 14:21:17 437.325
Cosmos 2499 03 Sep 14:20:32 14:27:40 29° 67° (ENE) 14:34:36 435.465 / 435.565
ISS 03 Sep 14:21:52 14:25:03 52° 34° (NE) 14:28:14 145.825
AIST 2 03 Sep 14:37:04 14:39:21 15° 110° (ESE) 14:41:50 435.215
Gurwin Techsat 1B 03 Sep 14:37:44 14:43:01 73° 257° (WSW) 14:48:22 435.225
ITAMSAT 1 03 Sep 14:38:30 14:43:41 86° 256° (WSW) 14:48:53 435.822/435.867
JAS-2 03 Sep 14:41:47 14:49:23 65° 72° (ENE) 14:57:09 435.910
BEESAT 03 Sep 14:43:37 14:48:23 74° 102° (ESE) 14:53:08 436.000
SRMSAT 03 Sep 14:54:01 14:55:09 11° 176° (S) 14:56:20 437.500
BEESAT 3 03 Sep 15:00:06 15:03:58 42° 306° (NW) 15:07:52 437.485
AO-7 03 Sep 15:04:40 15:12:26 47° 64° (ENE) 15:20:17 29.400- 29.500
KKS-1 03 Sep 15:07:28 15:10:44 20° 93° (E) 15:14:07 437.445
SWISSCUBE 03 Sep 15:10:09 15:14:48 54° 287° (WNW) 15:19:25 437.505
HORYU 2 03 Sep 15:16:11 15:19:54 26° 69° (ENE) 15:23:41 437.375
BEESAT 2 03 Sep 15:16:45 15:20:35 38° 307° (NW) 15:24:27 435.950
GONETS M04 03 Sep 15:31:17 15:38:45 31° 275° (W) 15:45:59
RS-15 03 Sep 15:33:16 15:43:49 60° 114° (ESE) 15:54:49 29.354- 29.394
ITUPSAT 1 03 Sep 15:50:50 15:54:42 24° 292° (WNW) 15:58:27 437.325
ISS 03 Sep 15:59:15 16:01:11 15° 229° (SW) 16:03:02 145.825
Cosmos 2499 03 Sep 16:13:04 16:21:26 57° 269° (W) 16:29:07 435.465 / 435.565
AIST 2 03 Sep 16:13:25 16:17:33 50° 305° (NW) 16:21:43 435.215
STARS 03 Sep 16:16:41 16:21:09 70° 102° (ESE) 16:25:34 437.465
BEESAT 03 Sep 16:23:46 16:25:41 12° 297° (WNW) 16:27:20 436.000
JAS-2 03 Sep 16:28:34 16:34:56 26° 270° (W) 16:41:09 435.910
KKS-1 03 Sep 16:43:22 16:47:29 35° 289° (WNW) 16:51:32 437.445
Cubesat XI-IV 03 Sep 16:45:20 16:46:20 11° 60° (ENE) 16:47:39 437.490
HORYU 2 03 Sep 16:52:35 16:56:28 27° 265° (W) 17:00:17 437.375
AO-7 03 Sep 16:57:39 17:05:21 39° 262° (W) 17:12:57 29.400- 29.500
MOZHAYETS 4 03 Sep 17:17:23 17:21:58 78° 102° (ESE) 17:26:30
CUTE-I 03 Sep 17:25:40 17:29:56 26° 67° (ENE) 17:34:19 437.470
CUBESAT XI-V 03 Sep 17:44:48 17:46:33 12° 88° (E) 17:48:35 437.345
RS-15 03 Sep 17:46:27 17:56:47 42° 318° (NW) 18:07:25 29.354- 29.394
STARS 03 Sep 17:55:32 17:57:03 11° 296° (WNW) 17:58:19 437.465
O/OREOS (USA 219) 03 Sep 17:56:46 18:00:37 29° 104° (ESE) 18:04:36 437.305
Cubesat XI-IV 03 Sep 18:20:22 18:25:42 84° 76° (ENE) 18:31:04 437.490
BRITE-PL 03 Sep 18:42:13 18:45:26 20° 66° (ENE) 18:48:58 437.365/2234.400
STRAND 1 03 Sep 18:48:57 18:51:49 15° 90° (E) 18:54:55 437.568
HO-68 03 Sep 18:49:30 18:53:32 17° 57° (ENE) 18:57:55 435.675
AIST 1 03 Sep 18:55:10 18:59:27 55° 80° (E) 19:03:44
GOMX 1 03 Sep 18:55:25 18:58:19 17° 65° (ENE) 19:01:29 467.674
DOVE 4 03 Sep 18:56:10 18:56:37 10° 61° (ENE) 18:57:23 437.250
MOZHAYETS 4 03 Sep 18:57:42 18:58:37 10° 296° (WNW) 18:59:15
CUTE-I 03 Sep 19:04:55 19:09:51 38° 263° (W) 19:14:46 437.470
CUBESAT XI-V 03 Sep 19:19:52 19:24:29 62° 285° (WNW) 19:29:04 437.345
O/OREOS (USA 219) 03 Sep 19:36:12 19:40:03 26° 301° (WNW) 19:43:52 437.305
Cosmos 2491 03 Sep 19:44:32 19:53:05 55° 77° (ENE) 20:01:41 435.465 / 435.565
YUBILEINY 03 Sep 19:50:53 19:57:36 27° 84° (E) 20:04:40 435.215
CUTE 1.7 + AOD 2 03 Sep 19:58:38 20:02:17 28° 71° (ENE) 20:05:59 437.475
PRISM 03 Sep 19:59:24 20:03:27 55° 100° (E) 20:07:30 437.425
Cubesat XI-IV 03 Sep 20:05:08 20:06:35 11° 273° (W) 20:07:38 437.490
RS-15 03 Sep 20:06:01 20:13:34 19° 350° (N) 20:21:12 29.354- 29.394
CANX-2 03 Sep 20:12:40 20:16:45 46° 74° (ENE) 20:20:52 2200.000
BRITE-PL 03 Sep 20:19:36 20:23:42 37° 264° (W) 20:28:06 437.365/2234.400
CUBEBUG 2 03 Sep 20:21:34 20:24:15 16° 66° (ENE) 20:27:09 437.445
UWE-3 03 Sep 20:22:45 20:24:27 12° 64° (ENE) 20:26:24 435.000/436.395/437.385
STRAND 1 03 Sep 20:26:27 20:31:28 58° 287° (WNW) 20:36:29 437.568
SEEDS 03 Sep 20:28:16 20:32:21 48° 74° (ENE) 20:36:27 437.485
DOVE 4 03 Sep 20:28:56 20:33:35 89° 257° (WSW) 20:38:36 437.250
GOMX 1 03 Sep 20:31:34 20:36:00 49° 262° (W) 20:40:45 467.674
HO-68 03 Sep 20:33:13 20:40:23 87° 75° (ENE) 20:47:38 435.675
AIST 1 03 Sep 20:35:15 20:36:40 11° 274° (W) 20:37:48
COMPASS 1 03 Sep 20:44:38 20:48:46 58° 75° (ENE) 20:52:54 437.405
CINEMA 3 03 Sep 20:50:37 20:55:18 68° 76° (ENE) 21:00:14 145.822/145.860
AAUSAT CUBESAT 2 03 Sep 20:51:56 20:56:02 59° 75° (ENE) 21:00:10 437.432
Oscar 11 03 Sep 20:52:14 20:55:49 26° 70° (ENE) 20:59:29 145.826/435.025
DELFI C3 03 Sep 20:54:24 20:56:55 17° 68° (ENE) 20:59:35 145.870
CUTE 1.7 + AOD 2 03 Sep 21:34:45 21:38:12 23° 266° (W) 21:41:33 437.475
PRISM 03 Sep 21:36:47 21:38:28 12° 295° (WNW) 21:39:56 437.425
Cosmos 2504 03 Sep 21:37:02 21:41:07 15° 78° (ENE) 21:45:50 435.465 / 435.565
ZACube-1 03 Sep 21:41:32 21:46:01 61° 75° (ENE) 21:50:35 437.345
Cosmos 2491 03 Sep 21:42:09 21:49:33 31° 275° (W) 21:56:43 435.465 / 435.565
YUBILEINY 03 Sep 21:45:09 21:53:52 63° 282° (WNW) 22:02:37 435.215
FUNcube-1 03 Sep 21:45:21 21:49:51 65° 75° (ENE) 21:54:25 145.935
CANX-2 03 Sep 21:50:34 21:52:59 14° 270° (W) 21:55:10 2200.000
VELOX 1 03 Sep 21:54:46 21:56:18 12° 64° (ENE) 21:58:04 145.980
UWE-3 03 Sep 21:55:48 22:00:25 71° 259° (W) 22:05:06 435.000/436.395/437.385
CUBEBUG 2 03 Sep 21:55:55 22:00:29 55° 260° (W) 22:05:10 437.445
HUMSAT D 03 Sep 21:59:36 22:03:32 36° 72° (ENE) 22:07:32 437.325/437.525
BEESAT 2 03 Sep 22:00:55 22:01:45 11° 40° (NE) 22:02:44 435.950
SEEDS 03 Sep 22:06:21 22:08:28 13° 270° (W) 22:10:22 437.485
TIGRISAT 03 Sep 22:15:04 22:16:35 12° 88° (E) 22:18:23 435.000
RS-15 03 Sep 22:22:50 22:31:46 25° 25° (NNE) 22:41:16 29.354- 29.394
COMPASS 1 03 Sep 22:23:49 22:24:52 11° 272° (W) 22:25:39 437.405
HO-68 03 Sep 22:24:57 22:29:08 15° 272° (W) 22:32:52 435.675
DX 1 03 Sep 22:25:23 22:29:26 40° 72° (ENE) 22:33:31 434.975-435.025
DELFI C3 03 Sep 22:27:59 22:31:43 36° 263° (W) 22:35:27 145.870
Oscar 11 03 Sep 22:28:18 22:31:58 25° 266° (W) 22:35:33 145.826/435.025
CINEMA 3 03 Sep 22:31:08 22:33:07 12° 273° (W) 22:34:50 145.822/145.860
AAUSAT CUBESAT 2 03 Sep 22:31:19 22:32:05 10° 272° (W) 22:32:34 437.432
ANTELSAT 03 Sep 22:32:11 22:35:25 20° 92° (E) 22:38:44 437.575/2403.000
UKube-1 03 Sep 22:32:36 22:36:40 43° 72° (ENE) 22:40:48 .
50 SAT 03 Sep 22:42:38 22:46:23 44° 74° (ENE) 22:50:10 437.505
CUBEBUG 1 03 Sep 22:51:33 22:55:14 29° 70° (ENE) 22:59:02 437.445
CUSAT 1 03 Sep 22:56:23 22:59:13 18° 83° (E) 23:02:45 437.405
ESTCUBE 1 03 Sep 23:00:10 23:04:25 45° 73° (ENE) 23:08:43 437.505/2401.250
AISAT 03 Sep 23:00:46 23:05:08 65° 75° (ENE) 23:09:32 437.250
SO-50 03 Sep 23:13:32 23:15:56 14° 109° (ESE) 23:18:35 436.795
AUBIESAT-1 03 Sep 23:18:20 23:21:28 25° 99° (E) 23:24:27 437.475
BEESAT 3 03 Sep 23:19:13 23:23:16 78° 58° (ENE) 23:27:14 437.485
ZACube-1 03 Sep 23:20:54 23:22:51 12° 272° (W) 23:24:33 437.345
UNISAT 6 03 Sep 23:22:09 23:26:42 72° 101° (ESE) 23:31:06 437.425
Cosmos 2504 03 Sep 23:23:57 23:32:08 85° 96° (E) 23:40:47 435.465 / 435.565
FUNcube-1 03 Sep 23:25:08 23:26:42 11° 273° (W) 23:27:58 145.935
TISAT 1 03 Sep 23:26:43 23:28:14 12° 65° (ENE) 23:29:57 437.305
M-CUBED/EXP-1 PRIME 03 Sep 23:26:43 23:30:20 40° 102° (ESE) 23:33:42 437.505
VELOX 1 03 Sep 23:27:59 23:32:21 64° 259° (W) 23:36:45 145.980
HUMSAT D 03 Sep 23:36:18 23:39:24 18° 268° (W) 23:42:22 437.325/437.525
BEESAT 2 03 Sep 23:36:24 23:40:28 88° 56° (ENE) 23:44:28 435.950
BUGSAT 1 03 Sep 23:43:21 23:46:48 24° 94° (E) 23:50:19 437.445
DANDE 03 Sep 23:48:19 23:51:40 34° 89° (E) 23:56:02 436.750
TIGRISAT 03 Sep 23:49:22 23:53:51 59° 286° (WNW) 23:58:11 435.000
YUBILEINY 03 Sep 23:50:19 23:53:02 11° 306° (NW) 23:55:00 435.215
DUCHIFAT 1 03 Sep 23:50:20 23:54:29 47° 99° (E) 23:58:36 145.980
POLYITAN 1 03 Sep 23:51:46 23:56:00 53° 100° (E) 00:00:11 437.675
POPSAT HIP 1 03 Sep 23:52:58 23:57:11 53° 100° (E) 00:01:23 437.405
DX 1 04 Sep 00:03:03 00:05:53 16° 268° (W) 00:08:35 434.975-435.025
ANTELSAT 04 Sep 00:08:12 00:12:21 35° 289° (WNW) 00:16:22 437.575/2403.000
SPROUT 04 Sep 00:09:01 00:13:15 64° 75° (ENE) 00:17:33 437.525
NANOSAT C BR1 04 Sep 00:09:02 00:13:21 83° 102° (ESE) 00:17:37 145.865
UKube-1 04 Sep 00:10:27 00:13:04 15° 269° (W) 00:15:30 .
QB50P2 04 Sep 00:10:47 00:15:07 89° 285° (WNW) 00:19:24 145.880/145.840
50 SAT 04 Sep 00:19:22 00:21:11 12° 270° (W) 00:22:47 437.505
QB50P1 04 Sep 00:24:14 00:28:31 64° 285° (WNW) 00:32:44 145.935-145.965
CUBEBUG 1 04 Sep 00:28:09 00:31:37 23° 266° (W) 00:35:01 437.445
RS-15 04 Sep 00:35:20 00:47:08 67° 53° (NE) 00:59:21 29.354- 29.394
AIST 2 04 Sep 00:36:01 00:40:11 73° 58° (ENE) 00:44:17 435.215
CUSAT 1 04 Sep 00:37:14 00:41:10 37° 289° (WNW) 00:46:17 437.405
ESTCUBE 1 04 Sep 00:38:48 00:41:34 15° 269° (W) 00:44:10 437.505/2401.250
SWISSCUBE 04 Sep 00:39:50 00:42:38 16° 65° (ENE) 00:45:37 437.505
AISAT 04 Sep 00:41:21 00:42:14 10° 272° (W) 00:42:49 437.250
PCSat 04 Sep 00:46:26 00:51:24 40° 112° (ESE) 00:56:28 145.827
SO-50 04 Sep 00:51:13 00:55:58 65° 305° (NW) 01:00:53 436.795
AUBIESAT-1 04 Sep 00:53:15 00:56:04 20° 297° (WNW) 00:58:40 437.475
TISAT 1 04 Sep 00:59:23 01:03:31 58° 259° (W) 01:07:43 437.305
UNISAT 6 04 Sep 01:01:30 01:02:53 11° 297° (WNW) 01:04:01 437.425
M-CUBED/EXP-1 PRIME 04 Sep 01:02:43 01:04:46 14° 300° (WNW) 01:06:36 437.505
ITUPSAT 1 04 Sep 01:18:24 01:22:41 35° 70° (ENE) 01:27:02 437.325
BUGSAT 1 04 Sep 01:18:36 01:22:14 27° 290° (WNW) 01:25:47 437.445
Cosmos 2504 04 Sep 01:19:43 01:25:39 20° 298° (WNW) 01:31:19 435.465 / 435.565
DUCHIFAT 1 04 Sep 01:27:26 01:29:54 15° 294° (WNW) 01:32:11 145.980
POLYITAN 1 04 Sep 01:29:16 01:31:28 13° 294° (WNW) 01:33:28 437.675
POPSAT HIP 1 04 Sep 01:30:27 01:32:38 13° 294° (WNW) 01:34:36 437.405
DANDE 04 Sep 01:32:39 01:35:17 16° 299° (WNW) 01:38:10 436.750
Oscar 19 04 Sep 01:46:10 01:50:53 35° 96° (E) 01:55:37 437.125/150
BEESAT 04 Sep 01:48:48 01:53:32 74° 75° (ENE) 01:58:19 436.000
VERMONT LUNAR 04 Sep 02:04:13 02:06:58 32° 155° (SSE) 02:09:42 437.305
KKS-1 04 Sep 02:05:09 02:07:57 17° 66° (ENE) 02:10:57 437.445
SWISSCUBE 04 Sep 02:15:26 02:20:05 53° 260° (W) 02:24:46 437.505
PCSat 04 Sep 02:30:15 02:34:57 29° 309° (NW) 02:39:37 145.827
GONETS M04 04 Sep 02:32:55 02:41:26 66° 93° (E) 02:50:04
SO-50 04 Sep 02:35:53 02:37:34 11° 325° (NW) 02:39:04 436.795
RS-15 04 Sep 02:48:35 02:59:07 36° 253° (WSW) 03:09:30 29.354- 29.394
ITAMSAT 1 04 Sep 02:52:43 02:57:28 37° 97° (E) 03:02:16 435.822/435.867
Gurwin Techsat 1B 04 Sep 02:55:09 03:00:18 49° 99° (E) 03:05:27 435.225
Cosmos 2499 04 Sep 02:55:50 03:02:07 24° 82° (E) 03:08:55 435.465 / 435.565
ITUPSAT 1 04 Sep 02:56:51 03:00:40 23° 266° (W) 03:04:24 437.325
AO-7 04 Sep 03:10:15 03:13:29 13° 86° (E) 03:17:25 29.400- 29.500
STARS 04 Sep 03:12:13 03:16:30 52° 73° (ENE) 03:20:50 437.465
Oscar 19 04 Sep 03:25:45 03:30:08 27° 292° (WNW) 03:34:23 437.125/150
BEESAT 04 Sep 03:31:00 03:32:00 10° 272° (W) 03:32:40 436.000
JAS-2 04 Sep 03:39:04 03:45:47 60° 99° (E) 03:51:40 435.910
KKS-1 04 Sep 03:40:01 03:44:17 44° 262° (W) 03:48:34 437.445
VERMONT LUNAR 04 Sep 03:40:15 03:43:15 76° 352° (N) 03:46:14 437.305
PHONESAT 2.4 04 Sep 03:54:50 03:57:40 24° 151° (SSE) 04:00:32 2401.200-2431.200
O/OREOS (USA 219) 04 Sep 04:07:15 04:11:41 47° 64° (ENE) 04:16:07 437.305
MOZHAYETS 4 04 Sep 04:17:54 04:22:28 64° 75° (ENE) 04:27:02
GONETS M04 04 Sep 04:32:00 04:39:05 26° 294° (WNW) 04:45:55
ITAMSAT 1 04 Sep 04:32:33 04:36:50 26° 293° (WNW) 04:41:02 435.822/435.867
Gurwin Techsat 1B 04 Sep 04:36:02 04:39:58 21° 295° (WNW) 04:43:44 435.225
HORYU 2 04 Sep 04:44:05 04:48:30 61° 101° (E) 04:52:52 437.375
Cosmos 2499 04 Sep 04:46:02 04:54:31 70° 280° (W) 05:03:25 435.465 / 435.565
CUBESAT XI-V 04 Sep 04:48:17 04:49:33 11° 64° (ENE) 04:51:04 437.345
STARS 04 Sep 04:51:04 04:53:19 13° 270° (W) 04:55:20 437.465
AO-7 04 Sep 04:59:27 05:07:47 78° 106° (ESE) 05:16:05 29.400- 29.500
VERMONT LUNAR 04 Sep 05:16:47 05:19:45 71° 6° (N) 05:22:44 437.305
JAS-2 04 Sep 05:25:06 05:30:15 23° 299° (WNW) 05:34:48 435.910
PHONESAT 2.4 04 Sep 05:31:53 05:35:18 86° 171° (S) 05:38:44 2401.200-2431.200
CUTE-I 04 Sep 05:47:01 05:47:01 10° 87° (E) 05:47:26 437.470
O/OREOS (USA 219) 04 Sep 05:47:55 05:50:45 16° 259° (W) 05:53:24 437.305
MOZHAYETS 4 04 Sep 05:58:28 06:00:12 12° 272° (W) 06:01:38
STRAND 1 04 Sep 06:03:39 06:07:20 21° 66° (ENE) 06:11:10 437.568
YUBILEINY 04 Sep 06:04:13 06:06:16 11° 54° (NE) 06:09:05 435.215
CUBESAT XI-V 04 Sep 06:21:52 06:26:27 73° 259° (WSW) 06:31:04 437.345
HORYU 2 04 Sep 06:22:35 06:24:40 13° 296° (WNW) 06:26:31 437.375
Cubesat XI-IV 04 Sep 06:39:04 06:43:56 36° 97° (E) 06:48:51 437.490
Cosmos 2499 04 Sep 06:45:24 06:49:46 14° 303° (WNW) 06:53:31 435.465 / 435.565
PRISM 04 Sep 06:48:21 06:52:02 34° 72° (ENE) 06:55:46 437.425
VERMONT LUNAR 04 Sep 06:53:18 06:56:04 37° 203° (SSW) 06:58:50 437.305
AO-7 04 Sep 06:53:32 06:59:51 24° 304° (WNW) 07:05:54 29.400- 29.500
ISS 04 Sep 07:00:23 07:03:12 28° 134° (SE) 07:06:05 145.825
PHONESAT 2.4 04 Sep 07:09:53 07:13:17 68° 3° (N) 07:16:41 2401.200-2431.200
